sat.trackr.live / text

‹ back to catalog

STARLINK-11432 [DTC]

NORAD 62882 · 2025-024D

PAYLOAD ACTIVE UNKNOWN

§ Identity

Operator
Country
US
Launch date
2025-02-04
Launch site
AFETR
Launch vehicle
Mass (kg)
RCS (m²)

Purposes: comms

External: N2YO · Heavens-Above · Gunter

§ Orbital elements

Epoch: 2026-09-21T04:54:49.533408Z

Period
91.67 min
Inclination
43.0002°
Eccentricity
0.0000627
Mean motion
15.70860784 rev/d
Perigee alt
356.0 km
Apogee alt
356.9 km
Semi-major
6,734.6 km
B*
1.1387e-3
RAAN
83.1735°
Arg perigee
333.9477°
Mean anomaly
26.1359°
Rev number
9,421

§ Raw data

STARLINK-11432 [DTC]1 62882U 25024D   26264.20473997  .00148424  00000+0  11387-2 0  99942 62882  43.0002  83.1735 0000627 333.9477  26.1359 15.70860784 94213

JSON: /api/v1/satellites/62882 · /tle

For live sub-satellite position, see the globe view (requires WebGL).

§ Visibility from observer

Set your observer location to see the next 7 days of passes ≥ 10°. The values pass through the URL so the page stays shareable.

No JS? Fill the form by hand. The geolocation button needs JavaScript.